Total_Precipitation_Accumulation
1.02 1.18 1.02 0.71 0.56 0.48 0.41 0.37 0.31 0.24 0.22 0.30 0.28 0.17 0.12 0.13 0.16 0.15 0.12 0.12 0.13 0.14 0.16 0.21 0.23 0.25 0.27 0.31 0.34 0.38 0.47 0.63 0.72 0.76 0.82 0.85 0.72 0.76 0.82 0.79 0.71 0.65 0.61 0.60
1.10 0.91 0.52 0.40 0.42 0.49 0.50 0.47 0.35 0.26 0.21 0.33 0.33 0.22 0.15 0.13 0.14 0.14 0.13 0.11 0.11 0.13 0.17 0.22 0.26 0.27 0.26 0.29 0.31 0.35 0.40 0.53 0.63 0.65 0.74 0.86 0.83 0.79 0.88 0.86 0.80 0.77 0.64 0.58
0.92 0.58 0.36 0.45 0.55 0.64 0.59 0.48 0.36 0.34 0.30 0.36 0.38 0.31 0.18 0.13 0.12 0.12 0.12 0.10 0.10 0.11 0.14 0.20 0.25 0.27 0.28 0.28 0.29 0.32 0.36 0.45 0.59 0.72 0.82 0.94 1.09 1.00 0.95 0.93 0.85 0.88 0.78 0.62
0.71 0.42 0.43 0.54 0.55 0.57 0.54 0.35 0.33 0.40 0.57 0.58 0.47 0.48 0.23 0.15 0.13 0.12 0.11 0.10 0.10 0.11 0.13 0.16 0.22 0.24 0.26 0.27 0.30 0.33 0.39 0.42 0.50 0.68 0.81 0.81 0.88 0.91 0.77 0.74 0.79 0.86 0.93 0.76
0.82 0.43 0.48 0.55 0.42 0.43 0.42 0.31 0.39 0.48 0.67 0.67 0.47 0.50 0.28 0.17 0.16 0.14 0.11 0.09 0.10 0.11 0.11 0.12 0.17 0.21 0.26 0.29 0.30 0.34 0.44 0.47 0.47 0.57 0.69 0.77 0.80 0.82 0.84 0.77 0.75 0.82 0.89 0.90
0.65 0.47 0.49 0.45 0.35 0.42 0.50 0.57 0.69 0.75 0.99 1.00 0.40 0.36 0.30 0.21 0.19 0.16 0.14 0.11 0.10 0.11 0.11 0.12 0.16 0.22 0.28 0.32 0.35 0.37 0.43 0.48 0.49 0.54 0.64 0.70 0.73 0.78 0.87 0.85 0.75 0.75 0.84 0.90
0.76 0.59 0.52 0.47 0.57 0.67 0.86 1.25 1.74 1.82 1.61 0.86 0.23 0.24 0.28 0.22 0.20 0.21 0.21 0.16 0.12 0.13 0.13 0.13 0.15 0.21 0.26 0.30 0.32 0.36 0.41 0.48 0.52 0.55 0.58 0.61 0.68 0.74 0.77 0.83 0.81 0.78 0.78 0.84
0.83 0.71 0.51 0.49 0.65 0.83 0.85 1.06 1.33 1.32 0.90 0.42 0.20 0.21 0.21 0.18 0.15 0.15 0.18 0.19 0.17 0.14 0.14 0.15 0.13 0.15 0.20 0.26 0.29 0.33 0.36 0.41 0.51 0.57 0.56 0.59 0.65 0.73 0.73 0.75 0.82 0.82 0.77 0.78
0.84 0.63 0.37 0.34 0.41 0.59 0.83 0.81 0.66 0.86 0.65 0.48 0.31 0.20 0.15 0.11 0.10 0.11 0.12 0.17 0.20 0.16 0.14 0.15 0.14 0.15 0.18 0.21 0.25 0.31 0.35 0.39 0.43 0.52 0.63 0.62 0.63 0.68 0.70 0.69 0.72 0.77 0.76 0.74
1.00 0.82 0.44 0.38 0.50 0.58 0.66 0.78 0.89 1.20 1.09 0.65 0.32 0.21 0.22 0.17 0.13 0.13 0.13 0.17 0.22 0.18 0.16 0.16 0.16 0.16 0.19 0.22 0.23 0.30 0.38 0.42 0.45 0.46 0.56 0.65 0.64 0.66 0.71 0.71 0.68 0.72 0.77 0.79
0.93 1.05 0.74 0.62 0.72 0.66 0.60 0.85 1.13 1.18 0.94 0.71 0.43 0.29 0.30 0.24 0.18 0.17 0.17 0.18 0.24 0.24 0.24 0.23 0.19 0.17 0.19 0.25 0.27 0.27 0.37 0.44 0.50 0.50 0.52 0.60 0.68 0.68 0.73 0.79 0.79 0.77 0.83 0.88
0.87 1.15 0.94 0.68 0.53 0.44 0.52 0.64 0.88 1.16 0.91 0.60 0.50 0.33 0.25 0.23 0.20 0.18 0.18 0.20 0.22 0.25 0.26 0.24 0.20 0.20 0.23 0.29 0.31 0.31 0.38 0.43 0.52 0.57 0.58 0.61 0.69 0.73 0.74 0.78 0.85 0.87 0.90 0.95
1.24 1.55 1.34 0.98 0.78 0.69 0.71 0.62 0.65 0.85 0.93 0.73 0.61 0.33 0.19 0.20 0.19 0.17 0.18 0.19 0.19 0.21 0.22 0.21 0.21 0.23 0.28 0.31 0.33 0.37 0.44 0.46 0.49 0.55 0.65 0.67 0.70 0.76 0.85 0.87 0.87 0.88 0.91 0.99
1.50 1.63 1.23 0.99 0.76 0.72 0.74 0.59 0.56 0.82 1.14 0.77 0.42 0.27 0.21 0.20 0.20 0.20 0.20 0.19 0.18 0.17 0.21 0.22 0.23 0.24 0.29 0.33 0.36 0.43 0.47 0.49 0.56 0.58 0.60 0.71 0.79 0.80 0.87 0.92 0.93 0.94 0.96 0.99
1.50 1.50 0.81 0.50 0.35 0.35 0.43 0.41 0.44 0.59 0.64 0.59 0.37 0.29 0.32 0.31 0.30 0.28 0.28 0.26 0.21 0.20 0.24 0.27 0.28 0.28 0.31 0.35 0.40 0.49 0.56 0.58 0.68 0.76 0.75 0.73 0.78 0.82 0.81 0.87 0.90 0.94 1.00 1.02
1.31 1.36 0.80 0.56 0.36 0.33 0.35 0.30 0.32 0.38 0.38 0.35 0.28 0.30 0.31 0.28 0.26 0.25 0.26 0.29 0.28 0.26 0.29 0.31 0.33 0.34 0.36 0.42 0.53 0.63 0.72 0.75 0.79 0.88 0.90 0.81 0.75 0.76 0.80 0.83 0.87 0.89 0.93 0.96
1.17 1.26 1.18 0.80 0.44 0.57 0.61 0.39 0.36 0.36 0.37 0.36 0.37 0.34 0.29 0.26 0.25 0.26 0.26 0.28 0.31 0.29 0.30 0.33 0.37 0.41 0.43 0.51 0.66 0.77 0.79 0.81 0.86 0.89 0.95 0.93 0.81 0.75 0.77 0.78 0.78 0.80 0.82 0.85
0.89 1.02 1.41 1.10 0.81 1.04 0.56 0.28 0.30 0.31 0.34 0.35 0.35 0.33 0.30 0.30 0.27 0.25 0.24 0.26 0.29 0.31 0.34 0.39 0.45 0.45 0.48 0.57 0.69 0.78 0.82 0.86 0.92 0.94 0.93 0.91 0.81 0.72 0.72 0.75 0.73 0.69 0.69 0.75
0.52 0.90 1.48 1.36 1.05 0.62 0.24 0.18 0.28 0.35 0.39 0.38 0.35 0.31 0.29 0.26 0.23 0.24 0.26 0.27 0.31 0.35 0.35 0.39 0.43 0.44 0.48 0.54 0.63 0.69 0.73 0.77 0.82 0.88 0.86 0.83 0.77 0.71 0.73 0.76 0.72 0.66 0.65 0.68
0.52 0.86 1.57 1.50 1.19 0.60 0.25 0.14 0.20 0.33 0.44 0.33 0.32 0.32 0.32 0.33 0.48 0.37 0.31 0.28 0.27 0.28 0.29 0.32 0.36 0.35 0.39 0.46 0.51 0.55 0.60 0.63 0.67 0.72 0.77 0.81 0.75 0.71 0.74 0.75 0.72 0.68 0.67 0.71
0.86 1.29 1.54 1.28 1.12 0.51 0.21 0.13 0.18 0.48 0.58 0.36 0.33 0.35 0.41 0.52 0.58 0.41 0.32 0.29 0.28 0.28 0.28 0.29 0.32 0.35 0.40 0.48 0.52 0.53 0.54 0.57 0.58 0.59 0.63 0.73 0.76 0.72 0.72 0.72 0.72 0.72 0.72 0.73
0.74 0.99 1.03 1.02 1.21 0.65 0.23 0.22 0.41 0.58 0.39 0.33 0.35 0.39 0.47 0.45 0.34 0.30 0.30 0.31 0.29 0.28 0.28 0.31 0.36 0.41 0.47 0.51 0.51 0.49 0.52 0.53 0.52 0.55 0.56 0.61 0.70 0.69 0.68 0.69 0.68 0.67 0.72 0.77
0.59 0.75 0.79 0.76 0.71 0.43 0.32 0.38 0.42 0.40 0.41 0.41 0.50 0.50 0.48 0.45 0.39 0.37 0.34 0.31 0.30 0.30 0.31 0.34 0.38 0.43 0.48 0.47 0.46 0.47 0.50 0.50 0.49 0.53 0.56 0.59 0.64 0.64 0.63 0.64 0.66 0.63 0.65 0.72
0.40 0.43 0.57 0.54 0.41 0.32 0.29 0.27 0.27 0.29 0.38 0.43 0.45 0.47 0.49 0.52 0.47 0.42 0.41 0.39 0.37 0.36 0.36 0.37 0.37 0.41 0.45 0.43 0.43 0.47 0.49 0.49 0.48 0.55 0.60 0.62 0.64 0.68 0.66 0.62 0.61 0.62 0.68 0.82
0.35 0.36 0.42 0.42 0.33 0.28 0.27 0.27 0.28 0.31 0.31 0.30 0.31 0.35 0.46 0.54 0.50 0.43 0.42 0.45 0.47 0.46 0.44 0.42 0.43 0.45 0.45 0.39 0.38 0.46 0.52 0.53 0.54 0.55 0.61 0.66 0.68 0.69 0.68 0.64 0.64 0.67 0.71 0.92
0.32 0.35 0.40 0.39 0.31 0.32 0.32 0.29 0.29 0.32 0.32 0.32 0.33 0.35 0.37 0.42 0.43 0.40 0.42 0.45 0.46 0.48 0.50 0.47 0.44 0.40 0.39 0.36 0.37 0.43 0.49 0.54 0.55 0.55 0.58 0.64 0.70 0.73 0.70 0.65 0.66 0.68 0.69 0.77